BAW76 LFSB-LFPO

Flight info

Callsign BAW76
Flight time 0h 49m
Altitude 33000
Route MOROK8N MOROK L856 PENDU DCT JAVVU DCT DJL DJL9E
Aircraft A319/M-SDE3FGIJ1KRWXY/LB1

Departure

Time 2026-05-06 12:57
Airport EuroAirport Basel–Mulhouse–Freiburg (LFSB)

Arrival

Time 2026-05-06 13:46
Airport Paris-Orly Airport (LFPO)
Time Latitude Longitude Altitude Speed Heading
2026-05-06 12:28 47.59888 7.52776 890 ft 0 kts 115°
2026-05-06 12:49 47.59893 7.52760 890 ft 4 kts 110°
2026-05-06 12:49 47.59899 7.52722 890 ft 4 kts 93°
2026-05-06 12:49 47.59900 7.52684 890 ft 4 kts 120°
2026-05-06 12:50 47.59904 7.52676 890 ft 0 kts 155°
2026-05-06 12:53 47.59901 7.52678 890 ft 3 kts 155°
2026-05-06 12:54 47.59864 7.52704 890 ft 7 kts 155°
2026-05-06 12:54 47.59812 7.52740 890 ft 10 kts 155°
2026-05-06 12:54 47.59746 7.52786 890 ft 11 kts 155°
2026-05-06 12:54 47.59671 7.52839 890 ft 13 kts 155°
2026-05-06 12:55 47.59584 7.52899 890 ft 14 kts 154°
2026-05-06 12:55 47.59513 7.52927 890 ft 9 kts 205°
2026-05-06 12:55 47.59479 7.52836 890 ft 11 kts 244°
2026-05-06 12:55 47.59447 7.52731 890 ft 12 kts 245°
2026-05-06 12:56 47.59422 7.52623 889 ft 12 kts 282°
2026-05-06 12:56 47.59494 7.52569 888 ft 14 kts 336°
2026-05-06 12:56 47.59662 7.52454 887 ft 55 kts 335°
2026-05-06 12:56 47.60202 7.52074 889 ft 115 kts 334°
2026-05-06 12:57 47.61074 7.51464 1027 ft 148 kts 331°
2026-05-06 12:57 47.61994 7.50836 1639 ft 145 kts 331°
2026-05-06 12:57 47.62915 7.50211 2188 ft 146 kts 329°
2026-05-06 12:57 47.63843 7.49558 2690 ft 152 kts 330°
2026-05-06 12:58 47.64857 7.48830 2968 ft 173 kts 333°
2026-05-06 12:58 47.66012 7.48005 3272 ft 196 kts 333°
2026-05-06 12:58 47.67187 7.46796 3579 ft 219 kts 307°
2026-05-06 12:58 47.67638 7.44570 3953 ft 241 kts 265°
2026-05-06 12:59 47.66967 7.42260 4589 ft 258 kts 229°
2026-05-06 12:59 47.65528 7.40587 5434 ft 268 kts 211°
2026-05-06 12:59 47.63873 7.39280 6438 ft 271 kts 207°
2026-05-06 12:59 47.62164 7.38051 7432 ft 275 kts 206°
2026-05-06 13:00 47.60441 7.36768 8378 ft 279 kts 207°
2026-05-06 13:00 47.58720 7.35401 9290 ft 283 kts 209°
2026-05-06 13:00 47.57001 7.33955 10199 ft 286 kts 210°
2026-05-06 13:00 47.55862 7.32963 10804 ft 287 kts 211°
2026-05-06 13:01 47.54139 7.31431 11523 ft 297 kts 211°
2026-05-06 13:01 47.52451 7.29472 11776 ft 321 kts 225°
2026-05-06 13:01 47.51149 7.26709 12301 ft 334 kts 242°
2026-05-06 13:01 47.50393 7.23430 12996 ft 340 kts 255°
2026-05-06 13:02 47.49844 7.20002 13724 ft 344 kts 255°
2026-05-06 13:02 47.49290 7.16545 14433 ft 348 kts 255°
2026-05-06 13:02 47.48726 7.13050 15150 ft 351 kts 255°
2026-05-06 13:02 47.48157 7.09530 15851 ft 354 kts 254°
2026-05-06 13:03 47.47578 7.05975 16523 ft 357 kts 254°
2026-05-06 13:03 47.46991 7.02395 17180 ft 360 kts 254°
2026-05-06 13:03 47.46393 6.98780 17812 ft 364 kts 253°
2026-05-06 13:03 47.45729 6.95166 18447 ft 366 kts 251°
2026-05-06 13:04 47.45002 6.91538 19073 ft 370 kts 251°
2026-05-06 13:04 47.44242 6.87895 19692 ft 373 kts 250°
2026-05-06 13:04 47.43472 6.84226 20314 ft 375 kts 250°
2026-05-06 13:04 47.42716 6.80577 20884 ft 378 kts 251°
2026-05-06 13:05 47.41940 6.76795 21454 ft 382 kts 251°
2026-05-06 13:05 47.41168 6.73020 21998 ft 385 kts 251°
2026-05-06 13:05 47.40404 6.69267 22514 ft 388 kts 251°
2026-05-06 13:05 47.39691 6.65412 23002 ft 393 kts 256°
2026-05-06 13:06 47.39336 6.61387 23500 ft 397 kts 261°
2026-05-06 13:06 47.39047 6.57323 23989 ft 400 kts 261°
2026-05-06 13:06 47.38754 6.53224 24467 ft 403 kts 261°
2026-05-06 13:06 47.38454 6.49100 24941 ft 406 kts 261°
2026-05-06 13:07 47.38144 6.44950 25405 ft 408 kts 261°
2026-05-06 13:07 47.37827 6.40775 25847 ft 411 kts 260°
2026-05-06 13:07 47.37503 6.36571 26273 ft 413 kts 260°
2026-05-06 13:07 47.37175 6.32346 26696 ft 416 kts 259°
2026-05-06 13:08 47.36844 6.28087 27102 ft 419 kts 259°
2026-05-06 13:08 47.36513 6.23806 27518 ft 422 kts 259°
2026-05-06 13:08 47.36182 6.19502 27919 ft 424 kts 259°
2026-05-06 13:08 47.35843 6.15166 28313 ft 427 kts 258°
2026-05-06 13:09 47.35499 6.10808 28685 ft 429 kts 258°
2026-05-06 13:09 47.35150 6.06425 29067 ft 431 kts 258°
2026-05-06 13:09 47.34797 6.02031 29426 ft 433 kts 258°
2026-05-06 13:09 47.34434 5.97609 29777 ft 435 kts 257°
2026-05-06 13:10 47.34060 5.93162 30059 ft 439 kts 258°
2026-05-06 13:10 47.33681 5.88671 30364 ft 442 kts 257°
2026-05-06 13:10 47.33304 5.84171 30698 ft 444 kts 258°
2026-05-06 13:10 47.32930 5.79646 31041 ft 445 kts 258°
2026-05-06 13:11 47.32561 5.75111 31390 ft 446 kts 258°
2026-05-06 13:11 47.32194 5.70575 31771 ft 445 kts 258°
2026-05-06 13:11 47.31830 5.66060 31867 ft 442 kts 258°
2026-05-06 13:12 47.31093 5.57087 31898 ft 440 kts 258°
2026-05-06 13:12 47.30352 5.48146 31895 ft 439 kts 258°
2026-05-06 13:13 47.29607 5.39206 31890 ft 440 kts 258°
2026-05-06 13:13 47.28849 5.30266 31887 ft 440 kts 258°
2026-05-06 13:14 47.28087 5.21378 31642 ft 433 kts 258°
2026-05-06 13:14 47.27942 5.16941 31397 ft 436 kts 268°
2026-05-06 13:14 47.28296 5.12484 31146 ft 441 kts 277°
2026-05-06 13:14 47.29212 5.08221 30900 ft 447 kts 290°
2026-05-06 13:15 47.30779 5.04239 30650 ft 453 kts 303°
2026-05-06 13:15 47.32893 5.00758 30403 ft 457 kts 311°
2026-05-06 13:15 47.35100 4.97404 30153 ft 455 kts 310°
2026-05-06 13:15 47.37303 4.94043 29905 ft 456 kts 310°
2026-05-06 13:16 47.39500 4.90671 29654 ft 454 kts 310°
2026-05-06 13:16 47.41668 4.87321 29174 ft 450 kts 310°
2026-05-06 13:16 47.43824 4.83975 28550 ft 448 kts 311°
2026-05-06 13:16 47.45965 4.80642 27944 ft 446 kts 311°
2026-05-06 13:17 47.48091 4.77316 27333 ft 443 kts 311°
2026-05-06 13:17 47.50200 4.74025 26738 ft 440 kts 311°
2026-05-06 13:17 47.52280 4.70791 26533 ft 430 kts 312°
2026-05-06 13:17 47.54332 4.67607 26248 ft 425 kts 312°
2026-05-06 13:18 47.56370 4.64443 25971 ft 422 kts 312°
2026-05-06 13:18 47.58388 4.61299 25689 ft 420 kts 313°
2026-05-06 13:18 47.60393 4.58170 25421 ft 418 kts 313°
2026-05-06 13:18 47.62388 4.55052 25149 ft 415 kts 313°
2026-05-06 13:19 47.64368 4.51953 24878 ft 413 kts 313°
2026-05-06 13:19 47.66336 4.48871 24607 ft 411 kts 313°
2026-05-06 13:19 47.68293 4.45802 24335 ft 408 kts 313°
2026-05-06 13:19 47.70238 4.42751 24075 ft 406 kts 313°
2026-05-06 13:20 47.72170 4.39714 23812 ft 404 kts 313°
2026-05-06 13:20 47.74091 4.36688 23535 ft 402 kts 313°
2026-05-06 13:20 47.75976 4.33715 23284 ft 399 kts 313°
2026-05-06 13:20 47.77874 4.30715 23029 ft 398 kts 313°
2026-05-06 13:21 47.79762 4.27725 22767 ft 396 kts 313°
2026-05-06 13:21 47.81646 4.24739 22502 ft 395 kts 313°
2026-05-06 13:21 47.83521 4.21768 22245 ft 393 kts 313°
2026-05-06 13:21 47.85386 4.18808 21996 ft 391 kts 313°
2026-05-06 13:22 47.87098 4.15682 21733 ft 389 kts 303°
2026-05-06 13:22 47.88378 4.12157 21475 ft 387 kts 292°
2026-05-06 13:22 47.89183 4.08352 21225 ft 384 kts 281°
2026-05-06 13:22 47.89740 4.04469 20973 ft 383 kts 281°
2026-05-06 13:23 47.90299 4.00604 20722 ft 381 kts 281°
2026-05-06 13:23 47.90861 3.96751 20472 ft 379 kts 281°
2026-05-06 13:23 47.91423 3.92922 20224 ft 378 kts 281°
2026-05-06 13:23 47.91981 3.89105 19978 ft 376 kts 281°
2026-05-06 13:24 47.92535 3.85307 19731 ft 374 kts 281°
2026-05-06 13:24 47.93083 3.81527 19486 ft 372 kts 281°
2026-05-06 13:24 47.93626 3.77759 19246 ft 371 kts 281°
2026-05-06 13:24 47.94163 3.74010 19001 ft 369 kts 281°
2026-05-06 13:25 47.94698 3.70279 18758 ft 367 kts 281°
2026-05-06 13:25 47.95228 3.66566 18518 ft 365 kts 281°
2026-05-06 13:25 47.95755 3.62868 18273 ft 364 kts 280°
2026-05-06 13:25 47.96405 3.59224 18037 ft 363 kts 289°
2026-05-06 13:26 47.97512 3.55903 17757 ft 364 kts 301°
2026-05-06 13:26 47.99092 3.52941 17157 ft 366 kts 314°
2026-05-06 13:26 48.00877 3.50255 16605 ft 363 kts 314°
2026-05-06 13:26 48.02644 3.47585 16078 ft 360 kts 313°
2026-05-06 13:27 48.04390 3.44931 15590 ft 356 kts 313°
2026-05-06 13:27 48.06117 3.42296 15069 ft 353 kts 314°
2026-05-06 13:27 48.07819 3.39690 14537 ft 349 kts 314°
2026-05-06 13:27 48.09505 3.37101 14054 ft 345 kts 313°
2026-05-06 13:28 48.11178 3.34533 13490 ft 343 kts 314°
2026-05-06 13:28 48.12834 3.31987 13004 ft 339 kts 314°
2026-05-06 13:28 48.14473 3.29466 12482 ft 337 kts 314°
2026-05-06 13:28 48.16089 3.26971 12198 ft 327 kts 314°
2026-05-06 13:29 48.17641 3.24576 12062 ft 314 kts 314°
2026-05-06 13:29 48.19135 3.22273 11915 ft 303 kts 314°
2026-05-06 13:29 48.20591 3.20036 11652 ft 297 kts 314°
2026-05-06 13:29 48.22029 3.17829 11441 ft 294 kts 314°
2026-05-06 13:30 48.23457 3.15638 11198 ft 293 kts 314°
2026-05-06 13:30 48.24877 3.13453 10908 ft 292 kts 314°
2026-05-06 13:30 48.26288 3.11277 10608 ft 290 kts 313°
2026-05-06 13:30 48.27690 3.09109 10300 ft 288 kts 313°
2026-05-06 13:31 48.29080 3.06957 9999 ft 287 kts 314°
2026-05-06 13:31 48.30466 3.04815 9747 ft 285 kts 313°
2026-05-06 13:31 48.31843 3.02686 9534 ft 284 kts 314°
2026-05-06 13:31 48.33216 3.00564 9309 ft 283 kts 314°
2026-05-06 13:32 48.34583 2.98448 9085 ft 282 kts 313°
2026-05-06 13:32 48.35944 2.96341 8866 ft 280 kts 313°
2026-05-06 13:32 48.37297 2.94242 8647 ft 279 kts 314°
2026-05-06 13:32 48.38642 2.92155 8429 ft 277 kts 314°
2026-05-06 13:33 48.39959 2.90106 8293 ft 268 kts 314°
2026-05-06 13:33 48.41235 2.88120 8168 ft 260 kts 314°
2026-05-06 13:33 48.42475 2.86188 8043 ft 253 kts 314°
2026-05-06 13:33 48.43688 2.84308 7920 ft 247 kts 316°
2026-05-06 13:34 48.45061 2.82805 7766 ft 242 kts 332°
2026-05-06 13:34 48.46629 2.81926 7443 ft 241 kts 347°
2026-05-06 13:34 48.48274 2.81714 7121 ft 241 kts
2026-05-06 13:34 48.49931 2.81961 6880 ft 237 kts
2026-05-06 13:35 48.51534 2.82200 6750 ft 227 kts
2026-05-06 13:35 48.53073 2.82425 6610 ft 218 kts
2026-05-06 13:35 48.54568 2.82640 6370 ft 214 kts
2026-05-06 13:35 48.56047 2.82852 6174 ft 213 kts
2026-05-06 13:36 48.57516 2.83062 5991 ft 211 kts
2026-05-06 13:36 48.58976 2.83267 5838 ft 210 kts
2026-05-06 13:36 48.60432 2.83151 5741 ft 210 kts 354°
2026-05-06 13:36 48.61879 2.82949 5585 ft 207 kts 354°
2026-05-06 13:37 48.63274 2.82760 5453 ft 196 kts 354°
2026-05-06 13:37 48.64590 2.82588 5347 ft 187 kts 354°
2026-05-06 13:37 48.65879 2.82418 5156 ft 185 kts 354°
2026-05-06 13:37 48.67162 2.82247 4999 ft 185 kts 354°
2026-05-06 13:38 48.68441 2.82074 4843 ft 185 kts 354°
2026-05-06 13:38 48.69721 2.81978 4773 ft 185 kts 359°
2026-05-06 13:38 48.71004 2.81979 4699 ft 184 kts 359°
2026-05-06 13:38 48.72287 2.81977 4618 ft 184 kts 359°
2026-05-06 13:39 48.73568 2.81977 4522 ft 184 kts 359°
2026-05-06 13:39 48.74843 2.81841 4440 ft 184 kts 346°
2026-05-06 13:39 48.76010 2.81073 4366 ft 184 kts 327°
2026-05-06 13:39 48.76930 2.79734 4281 ft 185 kts 307°
2026-05-06 13:40 48.77567 2.78042 4185 ft 185 kts 300°
2026-05-06 13:40 48.78184 2.76334 4102 ft 185 kts 300°
2026-05-06 13:40 48.78666 2.74533 4023 ft 186 kts 283°
2026-05-06 13:40 48.78640 2.72562 3904 ft 190 kts 259°
2026-05-06 13:41 48.78291 2.70635 3752 ft 186 kts 257°
2026-05-06 13:41 48.77960 2.68821 3623 ft 171 kts 257°
2026-05-06 13:41 48.77649 2.67105 3522 ft 168 kts 257°
2026-05-06 13:41 48.77340 2.65391 3396 ft 168 kts 257°
2026-05-06 13:42 48.77030 2.63686 3279 ft 168 kts 258°
2026-05-06 13:42 48.76722 2.61982 3201 ft 168 kts 257°
2026-05-06 13:42 48.76411 2.60275 3027 ft 168 kts 257°
2026-05-06 13:42 48.76102 2.58576 2823 ft 167 kts 257°
2026-05-06 13:43 48.75794 2.56886 2605 ft 166 kts 257°
2026-05-06 13:43 48.75488 2.55205 2398 ft 165 kts 257°
2026-05-06 13:43 48.75183 2.53540 2180 ft 159 kts 257°
2026-05-06 13:43 48.74904 2.52019 1964 ft 141 kts 258°
2026-05-06 13:44 48.74650 2.50628 1786 ft 134 kts 258°
2026-05-06 13:44 48.74405 2.49282 1612 ft 131 kts 258°
2026-05-06 13:44 48.74163 2.47960 1440 ft 130 kts 258°
2026-05-06 13:44 48.73922 2.46648 1269 ft 129 kts 258°
2026-05-06 13:45 48.73682 2.45341 1088 ft 129 kts 259°
2026-05-06 13:45 48.73206 2.42738 750 ft 128 kts 257°
2026-05-06 13:45 48.72965 2.41438 576 ft 127 kts 258°
2026-05-06 13:46 48.72727 2.40141 410 ft 129 kts 258°
2026-05-06 13:46 48.72498 2.38857 297 ft 118 kts 257°
2026-05-06 13:46 48.72306 2.37839 292 ft 78 kts 255°
2026-05-06 13:46 48.72207 2.37303 294 ft 32 kts 254°
2026-05-06 13:47 48.72169 2.36984 295 ft 27 kts 270°
2026-05-06 13:47 48.72179 2.36782 296 ft 16 kts 274°
2026-05-06 13:47 48.72185 2.36630 292 ft 11 kts 273°
2026-05-06 13:47 48.72209 2.36501 295 ft 15 kts 299°
2026-05-06 13:48 48.72268 2.36355 295 ft 18 kts 310°
2026-05-06 13:48 48.72338 2.36283 293 ft 19 kts 343°
2026-05-06 13:48 48.72442 2.36238 294 ft 12 kts 343°
2026-05-06 13:48 48.72487 2.36141 293 ft 12 kts 259°
2026-05-06 13:49 48.72469 2.35998 291 ft 15 kts 267°
2026-05-06 13:49 48.72477 2.35822 295 ft 17 kts 276°
2026-05-06 13:49 48.72515 2.35702 292 ft 13 kts 341°
2026-05-06 13:49 48.72612 2.35658 294 ft 16 kts 346°
2026-05-06 13:50 48.72710 2.35619 294 ft 8 kts 344°
2026-05-06 13:50 48.72769 2.35643 295 ft 11 kts 49°
2026-05-06 13:50 48.72790 2.35738 291 ft 4 kts 74°
2026-05-06 13:50 48.72795 2.35768 293 ft 2 kts 78°
2026-05-06 13:51 48.72786 2.35780 293 ft 2 kts 146°
2026-05-06 13:51 48.72770 2.35784 291 ft 2 kts 173°
2026-05-06 13:51 48.72760 2.35786 291 ft 1 kts 173°
2026-05-06 13:51 48.72754 2.35787 291 ft 0 kts 173°